MOHAMMED VI-B (43717 NORAD) Tracking and Keplerian Element Data

This shows tracking and keplerian element data for the satellite.

Feedback or suggestion? Click here.




ElementValue
Catalog43717
NameMOHAMMED VI-B
Epoch Orbit439
Epoch Day354.82532788
Epoch Year2018
RAAN64.4332
Inclination97.9556
Eccentricity0.00014
Argument of Perigee88.4067
Mean Anonmoly271.7304
Mean Motion14.77075476
Decay Rate3.5E-07
L11 43717U 18095A 18354.82532788 .00000035 00000-0 12187-4 0 9990
L22 43717 97.9556 64.4332 0001400 88.4067 271.7304 14.77075476 4393

Live tracking and technical data element details for MOHAMMED VI-B (NORAD 43717). MOHAMMED VI-B can be tracked NOW for your location showing map with azimuth and elevation plus other details from your city location.

Track the satellite on the map from your city or location and see movement details for azimuth, elevation, latitude, longitude, range, height, and movement on the map or in text.







IsCatalogInMostPopularTable: catalog: 43717, numindb: 80
Update: records affected: 1



GetName: 43717 MOHAMMED VI-B

Hit Count: updated at: Sun, 26 May 2019 19:07:34 GMT